Regional Weather Roundup
Issued by NWS

Home | Current Version | Previous Version | Text Only | Print | Product List | Glossary On
Versions: 1 2 3 4 5 6 7 8 9 10 11 12 13 14 15 16 17 18 19 20 21 22 23 24 25 26 27 28 29 30 31 32 33 34 35 36 37 38 39 40 41 42 43 44 45 46 47 48 49 50
000
ASUS42 KKEY 032010
RWRKEY

FLORIDA REGIONAL WEATHER ROUNDUP FOR THE FLORIDA KEYS
NATIONAL WEATHER SERVICE KEY WEST FLORIDA
400 PM EDT SUN MAY 03 2015

...SOUTH FLORIDA AND THE KEYS...

CITY           SKY/WX    TMP DP  RH WIND       PRES   REMARKS
FORT MYERS     PTSUNNY   83  53  35 E15G23    30.06F
SW REGIONAL AP MOSUNNY   84  55  36 E14G23    30.06F
NAPLES         MOSUNNY   84  51  31 E16G23    30.05F
MIAMI          PTSUNNY   80  56  43 E16G28    30.09S
WEST KENDALL   MOSUNNY   82  61  48 E15G24    30.08F
HOMESTEAD      SUNNY     79  63  56 NE21      30.07F
MARATHON       MOSUNNY   81  62  52 E12G21    30.06S
BOCA CHICA NAS MOSUNNY   82  63  52 E22G29    30.04F
KEY WEST INTL  MOSUNNY   81  64  56 E20G29    30.05S

...INTERNATIONAL WEATHER...

CITY           SKY/WX    TMP DP  RH WIND       PRES   REMARKS
NASSAU BAHAMAS PTSUNNY   79  61  53 NE14      30.07F
CANCUN MEXICO  MOSUNNY   84  70  61 N8        29.96F
COZUMEL MEXICO PTSUNNY   81  70  69 E13       29.94F

ADJACENT COASTAL WATERS...

STATION/POSITION TIME  SKY/WX   TEMP    WIND        PRES    WAVE
                                AIR SEA DIR/SP/G            HT/PER
                 (UTC)          (F)     (DEG/KT/KT) (MB)    (FT/S)
PULASKI SHOAL LI 1900            77      90/ 22/ 25 1017.3F
SAND KEY         1950            77      90/ 22/ 25 1017.2F
SOMBRERO KEY     2000            77      80/ 22/ 24 1017.6F
LONG KEY         2000            76 78   80/ 16/ 18 1018.7S
MOLASSES REEF    2000            76 80   90/ 18/ 20 1017.7F
FOWEY ROCKS      NOT AVBL

$$



USA.gov is the U.S. government's official web portal to all federal, state and local government web resources and services.